Location: *
(46.1833°N, 22.7667°E)
Time: 13:32:40
(UTC+00:00)

ATLAS 2AS CENTAUR R/B - Pass Details

Date: 17 September 2019
Orbit: 919 x 1292 km, 63.6° (Epoch: 21 September)

Event Time Altitude Azimuth Distance (km) Brightness Sun altitude
Rises 17:37:10 0° 321° (NW) 4,223 6.8 -11.0°
Reaches altitude 10° 17:40:03 10° 322° (NW) 3,218 6.1 -11.5°
Maximum altitude 17:47:51 84° 50° (NE) 1,183 2.9 -12.8°
Enters shadow 17:54:23 13° 140° (SE) 2,749 4.3 -13.9°
